Tracking 30166 objects as of 22-Jan-2025
HD Live streaming from Space Station
objects crossing your sky now

OBJECT Y

Track OBJECT Y now!
10-day predictions


NORAD ID: 61757
Int'l Code: 2024-199Y
Perigee: 478.4 km
Apogee: 495.8 km
Inclination: 97.4 °
Period: 94.2 minutes
Semi major axis: 6858 km
RCS: Unknown
Launch date: November 4, 2024
Source: (TBD)
Launch site: VOSTOCHNY COSMODROME (VOSTO)
Your satellite tracking list
Your tracking list is empty




NASA's NSSDC Master Catalog

Two Line Element Set (TLE):
1 61757U 24199Y   25022.51342278  .00036847  00000-0  13181-2 0  9998
2 61757  97.3784 252.3908 0012670 319.7303  40.2997 15.28624765 58984
Source of the keplerian elements: AFSPC